Tracking 28081 objects as of 27-Sep-2023
HD Live streaming from Space Station
objects crossing your sky now

GSAT 1

Track GSAT 1 now!
GSAT 1 is classified as:


NORAD ID: 26745
Int'l Code: 2001-015A
Perigee: 33,858.1 km
Apogee: 35,796.6 km
Inclination: 12.4 °
Period: 1,387.0 minutes
Semi major axis: 41198 km
RCS: 3.1622 m2 (large)
Launch date: April 18, 2001
Source: India (IND)
Launch site: SRIHARIKOTA (SRI)
Your satellite tracking list
Your tracking list is empty




NASA's NSSDC Master Catalog

Two Line Element Set (TLE):
1 26745U 01015A   23269.60769134 -.00000054  00000-0  00000-0 0  9999
2 26745  12.4383  11.2539 0235254 267.3611 110.2039  1.03820527 85204
Source of the keplerian elements: AFSPC